www.pogodaiklimat.ru

Погода и климат >> Архив погоды >> Норвегия >> Оппдал


ПОГОДА в Оппдале

  • Прогноз погоды в Оппдале
  • Монитор погоды в Оппдале

АРХИВ ПОГОДЫ в Оппдале

Время (UTC), дата Ветер
(напр.,м/с)
 
Видим.   Явления Облачность Т
(С)
Тd
(С)
f
(%)
Тe
(С)
Тes
(С)
Комфортность P
(гПа)
Po
(гПа)
Тmin
(С)
Tmax
(С)
R
(мм)
R24
(мм)
S
(см)
13 15.09 З 3
{8}
н/о н/о +8.2 +2.9 69 +6 +6 988.5 920.8
14 15.09 З 4
{11}
н/о н/о +5.2 +3.2 87 +1 +1 990.7 922.1 2
15 15.09 ЮЗ 4
{8}
н/о н/о +5.5 +3.4 86 +1 +1 990.5 922.0 2
16 15.09 ЮЗ 4
{7}
н/о н/о +5.4 +3.9 90 +1 +1 991.0 922.4 0.1
17 15.09 З 4
{9}
н/о н/о +5.5 +3.4 86 +1 +1 991.4 922.8 0.2
18 15.09 ЮЗ 5
{11}
н/о н/о +5.3 +4.0 91 +1 +1 993.3 924.6 +4.9 +11.3 6
19 15.09 ЮЗ 4
{7}
н/о н/о +5.2 +4.0 92 +1 +1 994.3 925.5 0.5
20 15.09 З 3
{7}
н/о н/о +5.3 +4.3 93 +2 +2 994.6 925.8 0.4
21 15.09 ЮЗ 4
{7}
н/о н/о +5.9 +4.4 90 +2 +2 995.3 926.6 1
22 15.09 ЮЗ 5
{9}
н/о н/о +5.8 +3.7 86 +1 +1 996.8 927.9 2
23 15.09 З 7
{14}
н/о н/о +5.0 +2.2 82 -1 -1 998.3 929.1 4
00 16.09 ЮЗ 5
{14}
н/о н/о +4.0 +2.4 89 -1 -1 999.8 930.3 1
01 16.09 ЮЗ 5
{10}
н/о н/о +3.5 +1.9 89 -2 -2 1000.6 930.9 0.6
02 16.09 З 6
{11}
н/о н/о +3.7 +0.8 81 -2 -2 1001.1 931.4
03 16.09 ЮЗ 6
{10}
н/о н/о +3.4 +0.8 83 -2 -2 1001.4 931.6
04 16.09 ЮЗ 4
{11}
н/о н/о +3.0 +0.9 86 -2 -2 1001.9 932.0
05 16.09 З 6
{11}
н/о н/о +4.4 +0.2 74 -1 -1 1001.2 931.7
06 16.09 З 7
{14}
н/о н/о +5.1 -0.3 68 -0 -0 1001.6 932.2 +2.9 +5.9 10
07 16.09 З 8
{15}
н/о н/о +5.3 -0.3 67 -0 -0 1002.2 932.8
08 16.09 З 7
{18}
н/о н/о +5.5 -0.3 66 +1 +1 1002.6 933.3
09 16.09 ЮЗ 7
{14}
н/о н/о +5.4 +0.4 70 0 0 1004.0 934.5
10 16.09 З 6
{11}
н/о н/о +6.2 -1.0 60 +2 +2 1004.1 934.8
11 16.09 З 6
{11}
н/о н/о +7.1 -0.3 59 +3 +3 1004.2 935.1
12 16.09 З 6
{18}
н/о н/о +7.7 -1.5 52 +4 +4 1003.6 934.7
13 16.09 З 3
{11}
н/о н/о +7.7 -0.2 57 +5 +5 1003.8 934.9
14 16.09 ЮЗ 5
{9}
н/о н/о +8.2 -0.5 54 +5 +5 1003.4 934.6
15 16.09 ЮЗ 4
{8}
н/о н/о +8.9 -0.1 53 +6 +6 1003.1 934.5
16 16.09 ЮЗ 3
{6}
н/о н/о +8.1 -0.4 55 +6 +6 1002.6 933.9
17 16.09 З 2
{4}
н/о н/о +6.9 +0.4 63 +5 +5 1002.4 933.4
18 16.09 ЮЗ 2
{11}
н/о н/о +5.1 +1.1 75 +3 +3 1002.9 933.4 +5.0 +9.0
19 16.09 ЮЗ 2
{7}
н/о н/о +3.8 0.0 76 +1 +1 1003.5 933.7
20 16.09 З 2
{4}
н/о н/о +2.8 -1.2 75 -0 -0 1003.6 933.5
21 16.09 С 1
{4}
н/о н/о +1.3 -0.9 85 -1 -1 1003.7 933.3
22 16.09 З 2
{3}
н/о н/о +2.4 -0.7 80 -1 -1 1003.1 933.0
23 16.09 СВ 1
{3}
н/о н/о +1.3 -0.8 86 -1 -1 1003.5 933.1
00 17.09 З 2
{7}
н/о н/о +0.6 -1.0 89 -3 -3 1003.4 932.8
01 17.09 СВ 2
{4}
н/о н/о 0.0 -1.0 93 -4 -4 1003.8 933.0
02 17.09 З 2
{4}
н/о н/о 0.0 -2.1 86 -4 -4 1003.5 932.8
03 17.09 З 2
{3}
н/о н/о +0.5 -0.5 93 -3 -3 1003.5 932.9
04 17.09
{3}
н/о н/о -0.2 -0.9 95 1004.0 933.2
05 17.09 З 1
{3}
н/о н/о +0.9 -0.4 91 -1 -1 1004.1 933.5
06 17.09 ЮЗ 2
{4}
н/о н/о +1.7 -0.5 85 -2 -2 1004.4 934.0 -0.8 +5.1
07 17.09 ЮЗ 2
{5}
н/о н/о +2.8 -1.2 75 -0 -0 1004.8 934.7
08 17.09 ЮЗ 2
{4}
н/о н/о +4.0 -1.3 68 +2 +2 1005.4 935.5
09 17.09 З 5
{7}
н/о н/о +4.9 -1.7 62 +1 +1 1005.5 935.8
10 17.09 ЮЗ 4
{8}
н/о н/о +5.0 -1.4 63 +1 +1 1006.2 936.5
11 17.09 З 3
{8}
н/о н/о +5.1 -1.1 64 +2 +2 1006.7 937.0
12 17.09 ЮЗ 3
{8}
н/о н/о +5.7 -0.5 64 +3 +3 1007.0 937.4
13 17.09 ЮЗ 5
{8}
н/о н/о +5.7 +0.5 69 +2 +2 1007.2 937.6
14 17.09 ЮЗ 4
{8}
н/о н/о +6.8 +1.1 67 +3 +3 1007.4 938.0
15 17.09 З 4
{9}
н/о н/о +6.2 +2.3 76 +3 +3 1008.2 938.6
16 17.09 З 2
{6}
н/о н/о +5.9 +2.9 81 +4 +4 1009.0 939.3
17 17.09 З 4
{7}
н/о н/о +5.3 +2.1 80 +1 +1 1010.0 940.1
18 17.09 З 4
{9}
н/о н/о +4.0 +1.6 84 -0 -0 1011.3 941.0 +1.7 +7.1
19 17.09 З 4
{9}
н/о н/о +2.9 +1.3 89 -2 -2 1012.3 941.7
20 17.09 З 3
{8}
н/о н/о +0.9 -0.2 92 -4 -4 1013.7 942.5
21 17.09 З 2
{4}
н/о н/о +1.0 0.0 93 -3 -3 1014.2 943.0
22 17.09 З 3
{6}
н/о н/о +1.4 +0.3 92 -3 -3 1014.4 943.2
23 17.09 З 3
{8}
н/о н/о +2.1 +0.6 90 -2 -2 1014.3 943.3
00 18.09 З 4
{9}
н/о н/о +2.6 +1.1 90 -2 -2 1014.5 943.6
01 18.09 З 3
{7}
н/о н/о +2.8 +1.2 89 -1 -1 1014.6 943.8
02 18.09 З 2
{6}
н/о н/о +2.8 +1.3 90 -0 -0 1015.3 944.4
03 18.09 ЮЗ 4
{7}
н/о н/о +2.2 +0.7 90 -3 -3 1016.0 944.9
04 18.09 З 3
{6}
н/о н/о +2.4 +0.9 90 -2 -2 1016.0 945.0
05 18.09 З 4
{8}
н/о н/о +2.4 +0.8 89 -3 -3 1016.5 945.4
06 18.09 З 4
{9}
н/о н/о +2.0 +0.7 91 -3 -3 1017.2 946.0 +0.8 +4.0
07 18.09 З 4
{8}
н/о н/о +2.1 +0.5 89 -3 -3 1017.6 946.4
08 18.09 З 5
{9}
н/о н/о +2.6 +1.1 90 -3 -3 1018.2 947.1
09 18.09 З 4
{8}
н/о н/о +3.2 +1.9 91 -2 -2 1018.6 947.5
10 18.09 З 3
{8}
н/о н/о +0.8 -0.3 92 -4 -4 1019.5 947.8
11 18.09 З 3
{7}
н/о н/о +3.1 +1.3 88 -1 -1 1019.3 948.2
12 18.09 З 4
{9}
н/о н/о +3.3 +2.0 91 -1 -1 1019.6 948.5
13 18.09 З 5
{9}
н/о н/о +3.0 +1.1 87 -2 -2 1020.1 948.9
14 18.09 З 4
{8}
н/о н/о +3.2 +1.6 89 -2 -2 1020.5 949.4 0.2
15 18.09 ЮЗ 5
{8}
н/о н/о +2.8 +1.5 91 -3 -3 1021.3 950.0 1
16 18.09 З 3
{7}
н/о н/о +2.2 +0.7 90 -2 -2 1022.1 950.6 2
17 18.09 З 2
{5}
н/о н/о +1.6 +0.3 91 -2 -2 1022.7 951.0 2
18 18.09 З 3
{9}
н/о н/о +1.6 +0.4 92 -3 -3 1023.2 951.5 +0.8 +4.0 7
19 18.09 З 2
{5}
н/о н/о +0.9 +0.1 94 -3 -3 1023.8 951.9 0.9
20 18.09 СЗ 2
{4}
н/о н/о +1.7 +0.7 93 -2 -2 1023.8 952.1
21 18.09 З 2
{5}
н/о н/о +1.9 +0.4 90 -1 -1 1023.9 952.2
22 18.09 Ю 1
{5}
н/о н/о +1.6 +0.3 91 -0 -0 1024.1 952.3
23 18.09 З 2
{6}
н/о н/о +2.0 +0.1 87 -1 -1 1024.2 952.5
00 19.09 ЮЗ 2
{6}
н/о н/о +2.3 +0.1 85 -1 -1 1024.2 952.6
01 19.09 З 3
{7}
н/о н/о +2.4 +0.5 87 -2 -2 1024.5 952.9
02 19.09 З 3
{8}
н/о н/о +2.6 +0.3 85 -2 -2 1024.6 953.0
03 19.09 З 2
{8}
н/о н/о +2.6 0.0 83 -1 -1 1024.8 953.2
04 19.09 З 2
{6}
н/о н/о +2.5 +0.3 85 -1 -1 1024.8 953.2
05 19.09 З 2
{5}
н/о н/о +2.4 +0.3 86 -1 -1 1025.1 953.5
06 19.09 З 3
{8}
н/о н/о +2.6 +0.3 85 -2 -2 1025.2 953.6 +0.9 +2.7 0.9
07 19.09 ЮЗ 1
{5}
н/о н/о +2.9 +0.8 86 +1 +1 1025.6 954.0
08 19.09 ЮЗ 2
{4}
н/о н/о +3.4 +1.3 86 0 0 1025.8 954.3
09 19.09 ЮЗ 3
{5}
н/о н/о +4.0 +0.5 78 0 0 1025.6 954.3
10 19.09 ЮЗ 4
{6}
н/о н/о +4.6 +0.2 73 +1 +1 1025.3 954.2
11 19.09 ЮЗ 5
{9}
н/о н/о +5.5 -0.3 66 +1 +1 1025.1 954.2
12 19.09 З 5
{9}
н/о н/о +6.0 -0.5 63 +2 +2 1024.6 953.9
13 19.09 ЮЗ 4
{7}
н/о н/о +6.0 -1.1 60 +3 +3 1024.6 953.9
14 19.09 ЮЗ 3
{6}
н/о н/о +5.8 -1.6 59 +3 +3 1024.5 953.7
15 19.09 З 2
{5}
н/о н/о +5.2 -1.0 64 +3 +3 1024.3 953.4
16 19.09 З 2
{3}
н/о н/о +5.1 -0.7 66 +3 +3 1023.8 952.9
17 19.09 З 1
{4}
н/о н/о +4.6 -1.0 67 +4 +4 1023.3 952.3
18 19.09 СЗ 2
{7}
н/о н/о +4.5 -1.7 64 +2 +2 1022.7 951.7 +2.5 +6.4
19 19.09 З 2
{4}
н/о н/о +4.2 -1.6 66 +2 +2 1022.2 951.2
20 19.09 СЗ 2
{4}
н/о н/о +4.2 -0.4 72 +2 +2 1021.8 950.8
21 19.09 СЗ 2
{4}
н/о н/о +3.1 +0.5 83 0 0 1022.0 950.7 0.8
22 19.09 З 1
{5}
н/о н/о +2.9 +0.8 86 +1 +1 1021.3 950.0 0.8
23 19.09 СЗ 1
{4}
н/о н/о +3.2 +1.1 86 +2 +2 1020.4 949.3 1
00 20.09 З 2
{5}
н/о н/о +3.2 +1.3 87 0 0 1019.6 948.5 1
01 20.09 З 1
{4}
н/о н/о +3.6 +1.3 85 +2 +2 1018.2 947.4 1
02 20.09 С 1
{3}
н/о н/о +2.9 +1.9 93 +1 +1 1017.5 946.5 0.2
03 20.09 З 1
{2}
н/о н/о +3.1 +2.4 95 +1 +1 1016.6 945.7
04 20.09 З 2
{3}
н/о н/о +3.4 +2.8 96 0 0 1015.8 945.0
05 20.09 З 2
{4}
н/о н/о +4.0 +3.0 93 +1 +1 1015.5 944.9 0.3
06 20.09 ЮЗ 1
{4}
н/о н/о +6.0 +5.3 95 +5 +5 1014.6 944.5 +2.6 +6.0 6
07 20.09 ЮЗ 3
{5}
н/о н/о +6.9 +6.0 94 +4 +4 1014.3 944.5
08 20.09 З 3
{8}
н/о н/о +8.4 +7.3 93 +6 +6 1014.4 944.9
09 20.09 ЮЗ 3
{9}
н/о н/о +9.3 +7.6 89 +7 +7 1014.4 945.1
10 20.09 Ю 3
{7}
н/о н/о +10.1 +7.0 81 +8 +8 1014.4 945.3
11 20.09 З 3
{9}
н/о н/о +10.7 +7.0 78 +9 +9 1014.5 945.5
12 20.09 З 4
{10}
н/о н/о +11.2 +7.3 77 +9 +9 1014.6 945.8
13 20.09 ЮЗ 4
{8}
н/о н/о +13.2 +6.3 63 +12 +12 1014.4 946.0
14 20.09 З 4
{9}
н/о н/о +12.2 +5.2 62 +10 +10 1014.7 946.1
15 20.09 З 4
{9}
н/о н/о +11.1 +5.2 67 +9 +9 1015.2 946.3
16 20.09 З 5
{9}
н/о н/о +10.8 +5.2 68 +8 +8 1015.2 946.2
17 20.09 З 5
{10}
н/о н/о +9.8 +4.6 70 +7 +7 1015.7 946.5
18 20.09 З 5
{12}
н/о н/о +9.3 +3.7 68 +6 +6 1016.0 946.6 +6.0 +13.4
19 20.09 З 4
{9}
н/о н/о +8.6 +3.9 72 +6 +6 1016.6 947.0
20 20.09 З 4
{7}
н/о н/о +7.6 +3.8 77 +4 +4 1016.7 946.9
21 20.09 ЮЗ 3
{8}
н/о н/о +8.4 +4.1 74 +6 +6 1016.8 947.2
22 20.09 ЮЗ 5
{8}
н/о н/о +8.3 +4.0 74 +5 +5 1016.7 947.0
23 20.09 З 6
{12}
н/о н/о +8.4 +3.3 70 +5 +5 1016.6 947.0
00 21.09 З 5
{12}
н/о н/о +7.8 +2.5 69 +4 +4 1017.1 947.3
01 21.09 ЮЗ 7
{12}
н/о н/о +8.4 +2.7 67 +4 +4 1016.9 947.3
02 21.09 З 6
{11}
н/о н/о +7.7 +3.0 72 +4 +4 1017.1 947.3
03 21.09 З 6
{11}
н/о н/о +7.5 +3.4 75 +3 +3 1017.4 947.5
04 21.09 З 5
{10}
н/о н/о +8.0 +4.0 76 +4 +4 1017.3 947.5
05 21.09 З 4
{8}
н/о н/о +9.2 +5.0 75 +6 +6 1016.9 947.4
06 21.09 З 4
{12}
н/о н/о +9.9 +5.3 73 +7 +7 1016.6 947.4 +7.2 +10.3
07 21.09 З 4
{8}
н/о н/о +10.4 +5.6 72 +8 +8 1016.8 947.6
08 21.09 З 3
{7}
н/о н/о +12.2 +6.3 67 +11 +11 1016.3 947.6
09 21.09 ЮЗ 5
{7}
н/о н/о +13.3 +6.4 63 +11 +11 1016.3 947.8
10 21.09 ЮЗ 5
{9}
н/о н/о +14.8 +6.4 57 +13 +13 1015.8 947.7
11 21.09 З 5
{10}
н/о н/о +15.5 +6.3 54 +14 +14 1015.5 947.6
12 21.09 З 6
{10}
н/о н/о +15.9 +5.5 50 +15 +15 1015.4 947.6
13 21.09 З 5
{11}
н/о н/о +16.2 +5.2 48 +15 +15 1014.9 947.2
14 21.09 З 5
{11}
н/о н/о +16.3 +4.7 46 +15 +15 1014.6 946.9
15 21.09 З 5
{10}
н/о н/о +15.8 +4.5 47 +15 +15 1014.6 946.8
16 21.09 З 3
{9}
н/о н/о +15.5 +4.6 48 +15 +15 1014.6 946.8
17 21.09 В 1
{6}
н/о н/о +11.9 +5.1 63 +12 +12 1015.5 946.8
18 21.09 С 1
{11}
н/о н/о +10.5 +4.9 68 +10 +10 1016.2 947.1 +9.3 +16.4
19 21.09 З 1
{3}
н/о н/о +8.9 +4.7 75 +8 +8 1016.7 947.2
20 21.09 штиль 0
{4}
н/о н/о +7.3 +4.6 83 +6 +6 1017.3 947.4
21 21.09 СВ 1
{2}
н/о н/о +6.5 +4.5 87 +5 +5 1017.7 947.5
22 21.09 В 1
{1}
н/о н/о +5.5 +3.8 89 +4 +4 1018.2 947.8
23 21.09 штиль 0
{2}
н/о н/о +5.0 +3.7 91 +4 +4 1018.2 947.7
00 22.09 З 1
{4}
н/о н/о +5.0 +4.1 94 +4 +4 1018.1 947.6
01 22.09 В 1
{3}
н/о н/о +5.1 +4.7 97 +4 +4 1018.0 947.5
02 22.09 СВ 1
{2}
н/о н/о +4.1 +3.5 96 +3 +3 1018.2 947.5
03 22.09 штиль 0
{3}
н/о н/о +3.2 +2.8 97 +2 +2 1018.7 947.7
04 22.09 СЗ 1
{2}
н/о н/о +2.8 +2.4 97 +1 +1 1018.9 947.8
05 22.09 штиль 0
{2}
н/о н/о +1.7 +1.3 97 0 0 1019.3 947.9
06 22.09 СВ 1
{3}
н/о н/о +1.5 +1.1 97 -1 -1 1019.6 948.1 +1.5 +11.3
07 22.09 штиль 0
{1}
н/о н/о +2.6 +2.2 97 +1 +1 1019.3 948.1
08 22.09 ЮЗ 1
{2}
н/о н/о +4.7 +4.3 97 +3 +3 1018.8 948.1
09 22.09 ЮЗ 2
{6}
н/о н/о +6.6 +5.7 94 +4 +4 1018.2 948.0
10 22.09 Ю 1
{2}
н/о н/о +10.7 +7.0 78 +10 +10 1016.8 947.7
11 22.09 В 2
{4}
н/о н/о +12.7 +7.6 71 +12 +12 1015.8 947.2

 

Местоположение метеостанции Оппдал (Норвегия): широта 62.60 долгота 9.67 высота над уровнем моря 604 м.

В архиве по умолчанию представлена погода в Оппдале за последнюю неделю. Архивные данные за месяц целиком и за предыдущие месяцы, начиная с января 2011 года, Вы можете получить, выбрав интересующий диапазон дат из раскрывающегося списка и нажав кнопку "Ввод!".


*Определитесь, кто Вы:
робот инопланетянин человек

Внимание! Время в таблицах - всемирное. Для получения местного времени необходимо прибавить поправку, которая равна 1 ч.

Смотрите также архив погоды в соседних городах и на ближайших метеорологических станциях:

Погода в Хьеркинне (Норвегия) (43 км)
Погода в Сокнедале (Норвегия) (47 км)
Погода в Тингволл-Ханеме (Норвегия) (47 км)
Погода в Фоллдале (Норвегия) (55 км)
Погода в Фокстугу (Норвегия) (58 км)
Погода в Тагдалене (Норвегия) (58 км)
Погода в Котсой (Норвегия) (62 км)
Погода в Домбасе (Норвегия) (65 км)
Погода в Тынсете (Норвегия) (66 км)
Погода в Орканжере (Норвегия) (81 км)

Пояснения к столбцам:

Ветер - указаны скорость ветра в м/с - средняя за 10 мин, порывы в срок и между сроками (в фигурных скобках) и направление, откуда дует ветер: С - северный, СВ - северо-восточный, В - восточный, ЮВ - юго-восточный, Ю - южный, ЮЗ - юго-западный, З - западный, СЗ - северо-западный.
Видимость - горизонтальная дальность видимости в метрах или километрах. При видимости от 1 до 10 км при отсутствии осадков обычно наблюдается дымка, при ухудшении видимости до 1 км и менее - туман. В сухую погоду видимость может ухудшаться дымом, пылью или мглою.
Явления - указаны атмосферные явления, наблюдавшиеся в срок или в последний час перед сроком; фигурными скобками обозначены явления, наблюдавшиеся между сроками (за 1-3 часа до срока); квадратными скобками обозначены град или гололедные отложения с указанием их диаметра в мм.
Облачность - указаны через наклонную черту общая и нижняя облачность в баллах и высота нижней границы облаков в метрах; квадратными скобками обозначены формы облаков: Ci - перистые, Cs - перисто-слоистые, Cc - перисто-кучевые, Ac - высококучевые, As - высокослоистые, Sc - слоисто-кучевые, Ns - слоисто-дождевые, Cu - кучевые, Cb - кучево-дождевые. Подробнее классификацию облаков см. в Атласе облаков (PDF).
T - Температура воздуха - температура, измеренная на высоте 2 м над землей.
Td - Температура точки росы - температура, при понижении до которой содержащийся в воздухе водяной пар достигнет насыщения.
f - Относительная влажность воздуха - влажноcть воздуха, измеренная на высоте 2 м над землей.
Te - Эффективная температура - температура, которую ощущает одетый по сезону человек в тени. Характеристика душности погоды. При расчете учитывается влияние влажности воздуха и скорости ветра на теплоощущения человека.
Tes - Эффективная температура на солнце - температура, которую ощущает человек, с поправкой на солнечный нагрев. Характеристика знойности погоды. Зависит от высоты солнца над горизонтом, облачности и скорости ветра. Ночью, в пасмурную погоду, а также при ветре 12 м/с и более поправка равна нулю.
P - Атмосферное давление - приведенное к уровню моря атмосферное давление.
Po - Атмосферное давление - измеренное на уровне метеостанции атмосферное давление.
Tmin - Минимальная температура - минимум температуры воздуха на высоте 2 м над землей.
Tmax - Максимальная температура - максимум температуры воздуха на высоте 2 м над землей.
R - Количество осадков - Количество выпавших осадков за период времени, мм. При наведении курсора мыши на число - период времени, за который выпало указанное количество осадков.
R24 - Количество осадков - Количество выпавших осадков за 24 часа, мм.
S - Снежный покров - Высота снежного покрова, см. При наведении курсора мыши на число - состояние снежного покрова и степень покрытия местности в баллах.